Location: Moscow
(38.8570°N, 84.2291°W)
Time: 02:02:10
(UTC+00:00)

PCSat - Visible Passes

Search period start: 12 March 2026 00:00
Search period end: 22 March 2026 00:00
Orbit: 780 x 790 km, 67.1° (Epoch: 11 March)

Date Brightness Start Highest point End Pass type
(mag) Time Alt. Az. Time Alt. Az. Time Alt. Az.
14 Mar 12.5 11:17:40 10° NNE 11:18:32 10° NE 11:19:23 10° NE visible
18 Mar 12.2 10:49:28 10° N 10:52:57 17° NE 10:56:25 10° E visible
19 Mar 12.4 10:17:56 10° NNE 10:20:17 13° NE 10:22:38 10° ENE visible
21 Mar 11.2 10:54:39 10° NNW 10:59:41 38° NE 11:04:40 10° ESE visible
